Theta_e
320 319 319 318 319 322 324 325 325 325 325 326 328 327 326 327 323 322 327 330 329 326 322 319 318 318 318 317 315 315 316 315 315 314 314 314 315 315 315 315 315 314 314 314 314 314 314 315 317 318 318 319 322 323 325 327 326 326 327 327 328 329 330 329 329 330 331 332 332 331 328 327 326 326 326 326 326 325 323 321 319 319 319 319 320 320 319
320 320 319 318 320 322 322 322 322 324 326 326 327 327 326 327 328 326 327 327 324 319 317 316 315 314 315 314 314 313 313 313 313 312 312 311 311 312 313 313 313 312 312 313 312 312 312 312 314 316 317 317 318 319 321 324 325 325 326 327 328 328 328 327 327 329 330 330 330 330 329 327 326 326 326 326 326 325 323 321 320 320 319 319 320 320 320
321 321 319 318 321 323 322 320 320 321 324 324 324 324 325 327 329 327 326 325 320 315 314 314 313 313 313 312 312 312 311 311 310 309 309 309 309 310 310 310 311 311 311 311 311 310 310 310 311 313 314 316 316 316 318 321 324 325 326 327 327 327 327 327 327 327 328 328 328 328 328 327 326 326 325 325 324 323 322 321 321 321 320 320 320 321 321
322 322 320 319 321 322 321 318 317 318 321 322 322 321 322 324 326 327 327 326 321 315 313 313 312 312 311 310 310 310 309 308 308 307 307 307 307 308 308 308 309 309 309 309 310 310 309 308 309 310 312 313 313 314 315 317 319 321 323 324 325 326 326 326 326 326 326 326 326 327 327 326 326 326 325 325 324 324 324 323 323 321 322 323 323 323 323
322 322 321 320 321 323 321 316 314 315 317 319 321 320 319 319 322 323 324 322 319 315 313 313 312 310 309 308 308 308 308 307 306 306 306 306 306 306 306 306 307 307 307 307 308 308 308 308 308 308 309 310 310 311 312 314 316 317 318 320 321 322 324 324 324 324 325 325 324 324 324 323 323 323 324 323 323 322 321 322 321 321 322 322 321 320 320
321 323 322 321 322 323 319 313 312 314 315 317 319 319 317 317 318 319 318 317 315 313 312 311 309 308 306 306 305 305 306 306 305 305 305 304 304 304 304 304 305 306 307 306 306 307 307 307 307 308 308 308 309 309 310 312 313 313 313 314 316 317 320 322 322 322 323 323 322 321 320 319 318 319 319 319 318 318 317 317 318 319 321 320 318 316 317
320 322 322 323 323 319 314 311 311 312 313 314 316 316 315 314 316 316 315 313 311 309 307 306 305 305 304 304 303 303 304 304 304 304 303 303 302 302 302 302 303 305 305 305 305 305 306 306 307 307 307 307 307 308 308 309 310 310 310 310 311 313 315 317 318 319 319 319 319 318 317 317 316 316 316 316 317 317 317 316 316 317 319 319 318 316 316
319 320 321 323 320 314 312 312 310 310 312 313 314 316 314 311 312 314 313 311 309 307 306 305 305 304 304 303 303 303 303 303 303 303 303 302 302 301 302 302 302 303 304 304 304 304 304 305 305 306 307 307 307 307 307 306 306 307 307 308 308 309 310 311 314 315 315 316 316 315 315 315 316 315 315 316 316 317 317 316 316 316 317 318 317 315 314
319 319 319 318 317 315 313 312 310 310 310 310 311 315 314 310 310 312 312 309 308 307 306 306 305 305 305 304 303 303 303 302 302 302 302 302 302 302 302 302 302 302 302 303 303 303 303 303 303 304 305 306 306 306 306 305 304 304 305 305 306 306 306 307 309 311 312 313 313 313 313 314 314 314 314 314 315 316 316 315 314 314 314 314 314 312 311
316 318 317 317 319 318 313 311 310 309 309 308 308 312 314 310 308 310 310 309 307 306 306 306 306 308 310 307 304 302 302 302 302 302 302 302 302 302 302 302 301 301 302 302 302 303 303 302 302 302 303 304 304 304 304 304 303 303 303 303 304 304 304 304 305 307 308 309 309 310 310 310 311 311 312 312 312 313 313 313 312 311 311 311 311 310 308
315 317 318 318 319 316 312 310 310 309 310 308 308 313 315 310 308 309 308 308 307 307 307 307 308 311 312 308 303 301 301 301 301 301 301 301 301 301 301 301 301 301 301 301 301 302 302 302 301 301 301 302 302 302 302 302 303 302 302 302 303 303 303 304 304 305 305 306 306 306 307 307 308 308 309 309 310 310 311 310 309 309 308 308 308 307 306
316 317 316 315 314 312 310 309 309 309 309 308 312 318 316 309 308 309 308 307 307 307 308 309 308 310 310 306 302 301 301 301 301 301 301 300 300 300 300 300 300 300 300 300 300 301 301 301 301 301 301 301 301 301 301 301 302 302 301 301 301 302 303 303 304 304 304 304 304 303 304 304 305 306 307 307 307 307 308 307 307 307 308 308 307 307 306
315 316 315 313 312 310 308 309 309 309 310 312 316 317 311 307 308 309 307 307 308 307 309 309 307 306 305 303 301 301 301 301 301 301 300 300 300 300 300 300 300 300 300 299 299 300 300 300 301 300 300 300 300 300 301 301 301 301 301 301 301 301 301 302 302 303 303 303 303 302 302 302 302 303 304 304 305 305 305 306 306 306 306 306 305 305 304
315 315 314 313 312 309 307 308 309 308 312 315 313 309 307 307 309 308 307 308 308 308 307 306 304 303 303 302 301 301 301 301 301 300 300 300 300 299 299 299 299 300 299 299 298 299 299 299 300 300 300 299 299 299 299 300 300 300 300 301 301 301 301 301 301 302 302 302 303 303 303 303 302 302 302 302 303 303 303 304 304 304 305 305 304 304 303
314 314 314 315 313 308 306 308 309 308 310 310 306 305 307 309 308 308 308 308 307 306 305 303 303 302 302 301 301 300 300 301 300 300 300 299 299 299 299 299 299 299 299 299 299 299 298 298 298 299 299 299 299 299 299 299 299 300 300 300 300 301 301 301 301 302 302 302 302 303 303 304 304 304 303 303 303 303 304 304 305 304 305 305 306 305 305
313 314 312 311 309 306 306 308 308 307 306 305 304 305 307 307 307 307 307 306 306 304 303 303 303 302 301 301 300 300 300 300 300 300 299 299 299 298 298 298 299 299 299 299 299 299 298 298 298 298 298 299 299 299 299 299 299 299 299 299 300 300 301 301 302 302 302 303 303 303 303 303 304 304 304 304 304 305 305 306 306 306 305 305 306 306 305
309 309 308 306 306 306 306 306 306 306 305 304 304 304 305 305 306 306 305 305 305 304 303 303 303 302 301 300 300 300 300 300 300 299 299 299 298 298 298 298 298 298 298 298 298 298 298 298 298 298 298 299 299 299 299 299 299 299 299 299 299 300 300 301 302 302 303 302 302 303 303 303 303 304 304 304 304 304 305 305 305 305 305 304 305 305 305
307 307 306 306 306 306 306 305 305 305 304 303 303 302 302 303 304 304 304 304 303 303 303 302 302 302 301 300 300 300 300 300 300 299 299 298 298 298 298 298 298 298 298 298 298 298 298 298 298 298 298 298 298 299 298 298 299 299 299 299 299 299 300 300 301 301 302 302 302 302 302 302 302 303 303 303 303 304 304 304 304 304 303 303 304 304 304
308 307 307 306 306 306 306 306 305 304 303 302 302 301 301 302 303 302 302 302 303 303 303 302 302 302 300 300 300 300 300 300 300 299 299 299 298 298 298 299 299 299 298 298 298 298 298 298 299 299 298 298 299 299 299 298 299 299 299 299 299 299 299 300 300 300 301 301 302 302 302 302 302 302 303 303 302 302 303 303 304 304 303 303 303 304 304
308 307 306 306 305 305 305 305 305 304 303 302 301 301 301 301 301 302 302 302 302 303 302 302 302 302 301 301 300 300 300 300 300 300 300 299 299 299 299 299 299 299 299 299 299 299 299 299 299 299 299 299 300 300 299 299 299 299 300 300 300 300 300 300 300 300 301 301 301 301 300 300 300 300 301 302 302 301 299 299 301 302 303 303 302 302 303
306 306 305 305 305 304 304 304 305 304 304 303 302 302 302 301 301 301 301 301 301 302 302 303 302 302 301 301 301 300 301 301 300 300 300 299 300 300 299 299 299 299 299 299 299 299 299 299 299 300 299 300 300 300 300 300 300 300 300 301 301 301 301 301 301 301 301 301 301 301 301 300 299 298 298 299 300 299 297 296 296 297 299 300 299 299 302
306 306 306 306 305 304 304 304 304 304 304 304 303 303 302 302 301 301 301 301 301 301 302 302 302 301 301 301 301 301 301 301 301 300 300 300 300 300 299 299 299 299 299 299 299 299 299 299 299 300 300 300 300 300 300 300 301 301 301 301 301 300 300 301 301 301 301 301 301 301 301 301 300 299 297 297 298 298 297 296 296 296 296 296 296 297 299
305 306 306 305 305 304 303 303 303 303 303 303 303 303 303 302 302 302 301 300 300 301 301 301 301 301 301 301 301 301 301 301 301 301 301 301 300 300 300 300 299 299 299 299 299 299 299 299 299 300 299 300 300 299 300 300 300 300 301 301 301 300 300 299 300 300 301 301 301 301 301 302 302 301 300 298 297 298 297 297 297 297 297 297 296 296 297
306 305 304 304 304 303 303 303 303 303 303 303 302 302 302 302 303 303 302 301 300 300 301 301 300 301 301 300 300 300 300 301 301 301 301 300 300 300 300 300 300 300 300 299 299 299 299 299 299 299 299 299 299 299 299 299 299 299 300 300 300 300 300 299 299 300 300 300 300 301 301 301 301 302 302 300 298 298 298 298 298 297 297 297 296 296 296
306 305 304 304 303 303 303 303 303 303 303 303 303 302 302 302 302 302 302 302 301 301 301 301 300 299 299 299 299 299 299 299 299 299 300 300 300 300 300 300 300 300 300 300 300 300 300 299 299 299 299 299 299 299 299 299 299 299 299 299 299 299 300 300 300 299 300 300 300 300 300 301 301 301 302 302 300 299 299 298 298 297 297 297 296 296 296
304 304 303 303 303 303 302 302 302 302 302 302 303 303 302 302 302 301 301 301 301 301 300 300 299 299 298 298 298 297 297 297 297 298 299 300 300 300 300 300 300 300 300 300 300 300 300 300 299 299 299 299 299 299 299 299 299 299 299 299 298 297 298 299 300 299 299 299 299 300 300 300 300 300 300 301 301 301 301 300 299 298 297 297 297 296 296
303 303 303 303 303 302 302 301 302 302 302 302 302 302 301 301 301 301 301 301 301 300 300 299 299 299 298 298 298 297 296 296 297 297 299 299 300 300 300 300 300 300 299 299 299 299 299 299 299 299 299 299 299 299 299 299 299 298 298 299 298 298 297 298 299 299 299 299 299 299 300 300 300 300 300 300 300 301 301 301 301 300 299 297 297 297 296
302 303 303 303 302 302 301 301 302 302 301 301 301 301 301 301 301 301 301 301 300 300 299 299 299 299 299 298 298 297 297 297 297 298 298 298 299 300 300 300 300 300 299 299 299 299 299 299 299 299 299 299 299 299 299 299 299 298 298 298 299 299 298 298 299 299 299 299 298 298 299 299 299 299 299 299 300 300 300 300 300 301 300 299 298 298 297
302 303 303 303 303 302 302 301 301 301 301 301 301 301 301 300 300 300 300 300 300 300 300 299 299 299 298 298 298 298 297 297 297 298 298 298 299 299 300 300 300 299 299 299 299 299 299 299 299 299 299 299 299 299 299 299 299 298 298 298 298 298 298 298 298 298 299 298 297 297 298 299 299 299 299 299 299 299 299 299 299 300 300 299 299 299 298
301 302 302 302 303 303 302 301 301 300 300 301 301 301 300 300 300 299 299 300 300 300 299 299 299 298 298 298 297 297 297 297 297 297 297 297 298 299 299 299 299 299 299 299 299 299 299 299 299 299 300 299 299 299 299 299 299 299 298 298 298 297 297 297 298 298 299 298 297 297 297 298 299 299 298 298 299 299 298 298 298 299 299 299 299 298 298
301 302 302 302 302 302 301 301 301 300 300 301 301 300 300 300 300 299 300 300 300 300 299 299 299 299 298 298 297 297 297 297 296 296 296 297 298 297 297 297 297 298 299 298 298 298 298 298 299 299 299 299 299 299 299 299 299 299 298 298 298 297 296 296 296 297 298 297 297 297 297 298 298 298 298 298 298 298 298 298 298 298 299 298 298 298 297
301 301 301 301 301 301 301 301 300 300 300 300 301 300 300 300 300 300 300 300 300 300 299 299 299 299 298 297 297 297 296 295 295 296 296 296 296 295 295 295 295 296 297 297 297 297 297 297 298 298 298 299 299 299 299 299 299 299 298 298 298 297 296 296 296 297 297 297 297 297 297 298 298 298 298 298 298 298 298 298 298 298 298 298 297 296 296
301 301 301 300 300 300 300 301 300 300 300 300 301 301 301 300 300 300 300 299 299 300 299 299 299 299 297 296 296 295 295 295 295 295 294 293 292 292 292 293 294 295 295 295 295 296 296 296 296 297 297 298 298 299 299 299 299 299 299 298 298 298 297 296 296 297 297 297 297 297 297 297 298 298 297 297 297 297 297 297 297 297 297 297 297 295 295
301 301 301 301 301 301 301 300 300 300 300 300 301 301 301 301 300 300 300 300 300 299 299 299 299 297 296 295 295 295 295 295 296 295 293 292 291 291 291 293 294 295 294 294 294 294 294 294 295 295 296 297 298 298 299 299 299 299 299 298 298 298 298 297 297 297 297 297 297 296 296 297 297 297 297 297 297 297 297 297 297 297 297 297 297 295 294
301 301 301 301 301 301 300 301 301 300 300 300 300 300 300 300 300 300 299 299 300 300 300 299 298 296 295 295 295 295 295 295 295 295 293 293 292 292 292 293 294 294 294 294 294 294 294 294 294 295 296 297 298 298 298 299 299 299 299 298 298 297 297 297 297 296 296 297 297 297 297 297 297 297 297 297 297 297 296 296 296 296 297 297 297 296 295
301 301 301 300 301 300 300 300 301 300 300 300 300 300 300 300 300 300 300 299 299 300 300 299 297 296 295 295 295 295 295 295 295 295 294 294 294 293 292 293 294 294 294 294 295 295 295 295 294 294 295 296 296 298 298 299 299 299 299 298 298 297 297 297 297 296 296 296 296 296 296 296 296 296 296 297 297 297 297 296 296 296 296 296 296 296 296
300 301 301 300 300 300 300 300 300 300 300 300 300 300 300 300 300 300 300 300 300 300 300 299 298 297 297 296 295 295 295 295 295 295 294 294 294 293 293 293 294 294 294 295 295 296 296 296 295 294 293 294 295 297 298 298 298 299 299 298 298 297 297 297 297 296 296 296 296 295 295 296 296 296 296 297 296 296 296 296 296 296 296 296 296 296 295
300 300 300 300 300 300 300 300 299 300 300 300 300 300 300 300 300 300 300 300 300 299 299 299 299 298 298 297 296 296 295 295 295 295 295 294 294 294 293 294 294 294 295 295 295 296 296 296 295 294 294 294 294 296 298 298 298 298 298 298 298 297 297 297 297 296 296 296 296 296 296 296 296 296 297 296 296 296 296 296 296 296 296 296 295 295 295
300 300 300 300 300 300 300 300 300 299 299 300 300 300 300 300 300 300 300 300 300 299 299 299 299 299 298 298 298 297 296 296 296 295 295 294 294 293 294 295 295 295 295 295 295 295 295 295 295 295 295 296 296 297 298 298 297 297 298 298 298 297 297 297 296 296 296 296 296 296 296 296 296 296 296 296 296 296 295 295 295 296 296 296 295 295 295
300 300 300 300 300 300 300 300 300 300 299 300 299 299 300 300 300 299 300 300 300 299 299 299 299 299 299 298 298 298 298 298 297 296 296 295 294 294 295 296 296 296 296 295 294 295 295 295 295 295 296 297 297 298 298 297 297 297 298 298 298 297 297 297 296 296 296 295 295 295 296 296 296 296 296 296 296 296 295 295 295 295 296 296 295 295 295
300 300 300 300 300 300 300 300 300 299 299 299 300 300 300 300 299 300 300 300 300 299 299 299 299 299 299 299 299 299 298 298 298 298 297 297 296 296 296 297 297 297 296 294 293 294 295 295 295 295 296 297 298 298 297 297 297 297 298 298 298 297 297 297 296 296 296 296 296 296 296 296 296 296 296 296 296 296 296 296 296 296 295 295 295 295 295
300 300 300 300 300 300 299 299 299 299 300 300 300 300 300 300 300 300 299 299 299 299 299 299 298 298 298 298 298 299 299 298 298 298 298 298 297 297 297 297 296 296 294 293 293 294 295 296 295 295 296 297 298 297 297 297 297 297 298 298 297 297 297 297 296 296 296 296 296 296 296 296 296 296 296 296 296 296 296 296 296 296 295 295 295 295 294
300 300 300 300 300 299 299 299 299 299 299 299 299 300 300 300 300 300 300 299 299 299 299 299 299 298 298 298 298 298 299 298 298 298 298 298 298 297 297 298 297 296 294 293 293 295 296 296 296 295 295 296 297 297 297 297 297 298 298 298 297 297 297 297 296 296 296 296 296 296 296 296 296 296 296 296 296 296 296 296 296 295 295 295 295 295 294
300 300 300 300 299 299 299 299 299 299 299 299 299 300 300 300 300 300 300 299 299 299 299 299 299 299 299 299 299 299 299 299 299 299 299 299 298 298 298 297 297 296 294 293 293 294 295 296 296 296 295 295 295 296 296 297 297 298 298 297 297 297 296 296 296 296 296 296 296 296 296 296 296 296 296 296 296 296 296 295 295 295 295 295 295 294 294
300 300 300 299 299 300 299 299 299 299 299 299 299 299 299 300 300 300 300 300 299 299 299 299 299 299 299 299 299 299 299 299 299 299 299 299 299 298 298 297 297 296 294 293 293 294 295 295 295 295 295 295 295 295 295 296 297 297 297 296 296 296 296 296 296 296 296 296 296 296 296 295 295 296 295 295 296 296 295 295 295 295 295 295 295 294 294
300 300 299 299 299 299 299 299 299 299 299 300 299 299 299 300 300 300 300 300 299 299 299 299 299 299 299 299 299 299 299 299 299 299 299 299 298 298 297 297 296 296 295 294 294 294 295 295 294 294 295 296 296 295 295 295 296 296 295 295 295 295 295 295 296 296 296 296 296 296 295 295 295 296 295 295 295 295 295 295 295 295 295 295 294 294 294
299 299 299 299 299 299 299 300 300 299 299 300 299 299 299 300 300 300 300 299 299 299 299 299 299 299 299 299 299 299 299 299 299 299 298 298 298 298 297 296 296 296 295 294 294 295 295 295 294 294 294 295 296 295 295 295 294 294 294 294 294 294 294 294 295 296 296 296 296 296 295 295 295 295 296 296 295 295 295 295 295 295 295 295 294 294 294
299 299 299 299 299 299 299 299 299 299 299 299 299 299 299 300 300 300 299 299 299 299 299 299 300 300 299 299 299 299 299 299 299 299 298 298 298 298 298 297 297 296 295 294 294 294 294 293 293 293 293 294 294 295 295 294 294 293 293 293 293 293 293 293 294 295 295 296 296 296 295 295 295 295 295 295 295 295 295 295 294 294 295 295 294 294 294
299 299 299 299 299 299 299 299 299 299 299 299 299 299 299 299 300 300 299 299 300 300 299 299 299 299 299 299 299 299 299 299 299 298 298 298 298 298 298 298 297 296 296 295 295 295 294 293 292 292 292 292 293 294 295 294 294 294 293 292 291 291 292 293 293 294 295 295 295 295 296 295 295 294 295 295 295 295 295 295 294 294 295 294 294 294 294
299 299 299 299 299 298 299 299 299 299 299 298 299 299 299 299 299 299 299 299 299 299 299 299 299 299 299 299 299 299 299 299 298 298 298 298 298 298 298 297 297 296 295 295 295 296 295 294 293 292 291 291 292 293 294 295 294 294 293 293 292 291 292 293 293 293 294 295 295 296 296 295 295 295 295 294 294 294 295 295 295 294 294 294 294 294 294
299 299 299 299 298 298 298 299 298 298 298 298 298 299 299 299 299 299 298 299 299 298 298 298 298 298 298 299 299 298 298 298 298 298 298 297 297 297 297 297 296 296 296 295 295 295 295 295 294 292 290 290 291 292 293 294 294 294 294 293 293 292 292 292 293 293 294 294 295 295 295 295 295 295 295 294 294 294 294 294 294 294 293 293 293 293 293
298 298 298 298 298 298 298 298 298 298 298 298 298 298 299 299 299 299 298 298 298 298 298 298 298 298 298 298 298 298 298 298 297 297 297 297 297 297 297 296 296 296 296 296 296 295 295 295 295 293 290 290 291 292 293 293 294 294 293 293 293 292 292 292 292 293 293 293 294 295 295 295 295 295 295 294 294 294 294 293 293 293 293 293 292 292 292
Wind_Speed
2 4 4 3 3 2 1 2 2 3 0 1 1 2 4 3 2 2 4 5 7 7 6 6 7 7 7 8 8 7 7 8 9 9 10 10 10 10 10 10 11 11 11 12 13 15 15 15 16 16 18 20 18 14 10 5 4 6 8 19 26 22 18 18 17 16 16 15 14 17 19 18 18 17 16 15 13 12 11 10 9 9 9 10 9 8 9
0 2 3 4 1 0 4 6 7 5 5 6 7 7 7 5 6 7 8 8 8 7 5 6 6 5 6 7 7 8 8 9 10 10 10 10 10 10 10 10 10 11 11 12 14 16 17 17 17 16 15 16 17 17 17 10 7 9 12 19 20 16 17 18 18 18 17 15 14 15 17 17 17 17 16 15 13 12 11 10 8 8 8 9 8 8 9
4 3 3 3 1 1 5 11 12 10 8 7 7 8 8 6 6 8 8 7 6 4 4 5 5 5 6 8 8 9 9 9 10 10 10 10 9 9 9 10 10 10 11 13 14 16 17 18 17 16 15 14 13 14 17 17 15 13 14 17 14 12 16 16 17 18 16 15 15 14 14 15 16 15 15 15 13 12 11 10 8 7 7 7 6 6 8
5 5 5 5 4 3 7 12 14 13 10 8 7 8 9 7 4 4 5 3 3 4 4 5 5 7 8 9 9 9 9 9 10 10 9 9 8 9 9 9 10 10 11 13 14 16 17 17 17 16 14 14 15 15 16 18 19 18 18 16 14 13 13 14 16 17 16 15 16 15 13 14 14 15 15 16 14 12 12 10 9 8 7 6 7 8 9
4 4 5 5 6 6 3 8 10 10 9 8 5 7 9 10 8 2 1 3 5 6 5 5 6 8 9 9 9 8 8 9 10 10 9 8 8 9 9 9 10 10 11 13 15 16 16 17 18 17 15 15 17 16 17 19 22 23 23 22 21 19 17 17 17 18 18 17 18 18 16 14 15 16 16 16 15 16 15 12 11 10 8 7 6 6 7
3 4 5 5 6 5 1 4 7 7 8 8 7 7 8 9 8 6 6 7 7 6 6 7 8 9 10 10 9 9 8 8 8 9 9 9 9 9 9 9 10 11 12 13 14 14 14 15 16 16 17 19 18 17 18 22 24 24 24 24 24 23 21 19 18 18 19 19 18 18 18 17 17 16 16 15 14 14 15 13 12 12 11 9 8 6 5
1 4 5 6 5 2 2 4 8 8 5 6 6 6 9 10 8 7 8 8 7 7 8 9 8 9 10 11 11 11 10 8 8 8 9 9 9 9 9 10 10 11 13 13 13 13 12 12 13 14 16 18 19 19 22 25 26 25 25 25 24 23 21 19 18 18 19 19 17 16 18 18 16 12 11 11 10 9 9 9 10 10 10 9 9 9 9
2 4 5 4 3 4 4 3 8 9 5 5 4 4 9 11 9 6 6 7 7 8 9 8 8 9 10 11 11 11 10 10 9 9 9 9 10 10 10 11 12 13 13 14 14 13 13 12 13 13 13 14 17 20 23 25 27 28 27 26 25 23 21 19 19 18 18 19 18 17 17 15 13 11 9 9 9 9 9 8 8 8 9 9 9 9 10
4 3 3 4 6 5 6 4 6 7 4 4 4 1 6 10 9 6 5 6 7 7 7 7 7 7 6 8 9 10 10 10 10 10 10 10 10 11 12 13 14 14 14 15 15 15 16 17 17 15 13 12 14 18 19 21 26 29 28 26 25 23 21 20 21 20 19 19 18 18 18 17 15 15 13 12 11 10 11 11 11 10 11 11 10 9 9
4 5 6 4 5 3 6 6 5 5 2 2 3 1 3 7 8 7 4 6 6 6 6 6 4 2 1 4 7 8 9 9 10 10 11 12 12 13 13 14 15 16 16 17 17 17 18 19 18 17 15 14 15 18 18 18 22 26 26 25 24 23 21 20 21 22 21 20 19 18 18 17 17 17 16 14 13 11 11 12 11 11 11 11 10 10 11
2 3 4 3 3 3 6 7 7 6 2 1 3 3 2 6 7 5 3 4 5 5 5 3 1 3 1 3 5 6 7 9 10 9 10 12 13 13 14 14 14 15 15 17 19 19 19 18 18 18 17 17 18 19 19 19 20 22 22 21 20 19 19 20 21 22 21 20 20 19 17 16 15 16 16 15 13 12 13 12 11 11 11 10 10 11 11
2 4 4 4 4 4 8 9 7 5 2 2 3 2 2 6 7 2 3 3 5 5 3 3 5 4 2 4 5 6 7 10 11 11 11 12 12 13 13 14 14 14 15 17 19 19 18 17 16 16 17 19 20 20 20 20 21 20 18 17 17 17 17 17 19 20 20 19 18 18 17 16 15 15 15 14 14 14 13 12 11 10 10 8 8 7 7
5 7 6 5 4 4 10 10 6 6 2 4 2 2 2 6 6 2 3 4 6 4 2 4 4 5 6 8 9 7 7 9 10 11 11 12 13 13 14 14 14 15 17 18 18 18 17 17 16 15 16 18 19 19 19 20 19 18 16 16 16 17 17 17 17 17 17 16 16 16 16 16 15 14 14 14 14 12 10 9 9 9 7 6 5 4 3
2 6 7 6 5 6 13 10 5 6 4 2 2 4 4 5 3 4 5 5 5 3 5 6 6 7 10 11 9 7 7 7 8 10 11 11 12 13 14 15 15 15 17 19 20 19 19 18 16 15 16 18 17 18 19 19 17 15 15 15 15 16 16 17 17 16 16 15 14 14 13 13 13 13 12 11 11 9 8 7 7 6 5 4 4 4 3
2 5 6 4 3 7 14 10 4 6 6 2 2 4 4 5 7 6 5 5 6 6 8 9 9 10 11 10 9 9 8 7 8 9 9 10 11 12 13 14 14 14 15 17 18 17 19 20 19 17 17 17 16 18 19 17 15 14 14 14 14 15 15 15 15 15 14 14 13 12 12 11 10 10 9 8 7 6 6 5 5 4 4 4 4 4 3
3 4 5 4 2 6 10 9 5 5 6 3 2 3 4 7 7 6 7 7 8 9 10 10 10 10 10 10 10 9 8 8 8 9 9 9 10 11 11 11 11 12 13 14 14 14 15 18 20 20 19 17 16 17 16 14 13 14 14 13 14 14 14 14 14 13 13 12 11 11 10 10 9 9 8 6 5 5 3 3 3 3 3 2 2 2 2
7 7 5 5 4 5 8 8 7 7 7 6 5 6 6 7 7 7 7 8 10 11 10 10 10 9 9 10 10 8 8 8 8 8 9 9 9 9 10 10 10 11 12 12 13 12 12 14 16 17 16 16 16 16 14 13 13 13 13 13 14 14 14 13 12 11 11 12 11 11 10 9 9 8 7 6 5 4 4 3 3 2 2 1 1 1 1
12 11 8 7 7 8 9 9 8 9 8 7 7 8 7 8 8 8 8 9 10 10 10 10 10 9 9 10 9 8 7 7 8 9 9 9 9 9 9 9 9 10 11 11 11 11 11 11 13 13 12 13 14 14 13 13 13 12 13 13 13 12 13 13 12 12 11 11 11 11 10 10 9 9 8 7 6 5 5 4 3 3 3 2 2 2 2
8 7 7 9 9 9 10 10 10 10 10 8 8 8 8 8 9 9 9 9 9 10 10 10 9 9 9 9 8 7 7 7 8 8 8 8 9 9 8 7 7 8 9 9 9 10 10 10 10 10 10 10 11 11 11 11 11 11 11 11 10 11 11 11 11 12 11 11 11 11 11 11 10 10 9 9 9 8 7 6 5 5 4 4 4 4 3
8 8 9 10 11 11 11 10 9 9 10 10 9 9 9 10 11 12 12 10 9 9 9 9 9 8 7 7 8 8 7 6 7 7 7 7 7 7 6 6 7 8 8 8 9 9 9 9 8 8 9 9 9 9 9 8 8 9 9 9 9 9 10 10 10 10 10 11 11 11 13 13 13 12 10 9 10 10 10 8 6 6 6 6 7 6 5
9 9 10 9 10 12 12 11 11 10 10 11 11 11 12 12 13 13 14 13 12 10 9 8 8 7 6 6 5 8 9 9 8 7 7 6 5 5 5 5 6 7 6 7 8 8 8 8 8 8 8 8 9 9 8 8 7 7 7 8 8 9 9 9 9 9 10 10 10 10 10 12 14 16 14 12 10 10 10 9 8 7 7 7 7 6 6
6 7 7 5 6 8 8 10 11 11 11 11 12 12 12 12 13 13 13 14 13 12 12 11 10 8 9 12 12 9 7 8 9 8 6 6 5 5 5 4 5 5 5 5 6 6 7 7 7 8 9 9 10 10 9 9 8 7 6 6 8 9 9 9 9 9 9 9 8 8 7 7 9 12 15 15 14 12 12 11 11 10 9 9 9 8 7
7 7 7 6 6 8 8 9 10 10 10 10 11 12 12 11 11 12 11 12 12 11 12 13 11 9 9 11 12 11 10 8 6 5 5 5 5 5 5 5 4 5 5 5 5 5 6 6 6 7 8 8 8 9 9 10 10 9 8 7 7 9 9 9 8 7 8 7 7 6 6 5 5 6 8 12 14 15 15 14 13 13 12 12 12 10 9
9 8 9 9 9 9 9 9 9 9 9 10 10 11 11 10 11 12 12 11 11 10 10 11 10 9 9 8 8 8 8 8 8 8 5 3 4 3 4 4 4 4 4 3 4 4 4 4 5 5 5 6 6 7 8 9 9 10 10 9 8 7 8 8 7 7 7 7 6 5 5 5 4 3 5 8 10 12 13 13 12 13 14 14 13 12 10
10 9 9 10 10 9 9 9 9 9 10 10 9 9 10 11 12 12 12 12 12 11 10 10 9 9 8 7 6 4 4 5 8 12 10 5 2 1 1 3 3 3 4 3 2 2 2 3 4 4 4 5 6 7 7 8 8 8 8 9 10 9 7 6 6 6 6 6 5 5 5 4 4 4 3 4 7 9 8 8 8 10 13 13 13 12 11
10 10 10 10 10 9 8 7 8 9 9 9 8 9 11 11 11 11 11 11 11 10 10 9 9 7 7 6 5 3 2 2 4 7 8 5 3 3 2 2 2 3 3 3 3 3 3 1 2 3 3 4 4 4 5 6 6 7 6 7 8 9 8 7 5 5 6 5 4 4 4 4 4 4 4 4 3 4 6 5 5 6 9 11 13 14 13
9 8 8 8 8 7 7 6 7 8 9 9 9 9 9 9 9 10 10 10 10 9 8 8 6 5 4 4 4 4 2 1 0 2 5 5 5 5 4 2 2 3 4 3 4 4 2 1 1 1 2 3 2 2 4 5 4 5 5 4 6 7 5 6 5 4 5 5 4 3 3 3 3 3 3 3 2 2 2 3 4 5 6 8 12 14 14
7 6 5 5 6 7 7 7 7 8 8 8 8 8 7 7 7 7 7 7 8 8 7 6 4 3 3 2 2 2 2 1 2 1 3 4 4 4 4 2 2 2 3 4 4 3 3 3 3 2 1 2 3 3 4 4 3 4 5 3 3 4 4 4 5 4 4 5 5 3 2 2 2 3 3 2 1 1 2 2 2 2 4 7 10 12 12
7 6 6 6 7 8 7 7 7 7 6 6 6 6 6 5 5 5 5 5 5 5 5 4 3 2 3 3 2 3 3 3 3 3 2 2 3 3 3 3 4 5 5 5 5 4 4 4 3 3 3 2 3 3 4 4 3 4 5 4 4 5 6 5 5 4 3 4 5 5 3 4 2 1 2 2 2 2 3 3 4 4 4 5 6 7 8
7 7 7 7 7 6 6 5 5 5 5 4 4 4 4 4 3 3 3 3 3 3 2 2 2 2 3 3 3 4 4 4 4 4 3 2 2 2 2 3 5 6 7 7 6 5 5 5 5 5 4 3 3 3 3 4 4 4 4 3 3 5 7 5 4 4 3 2 4 4 4 4 2 2 2 1 2 2 3 3 2 3 3 5 5 6 7
7 7 7 6 5 5 5 4 3 3 4 3 2 3 3 3 3 3 2 2 2 1 1 1 1 1 2 3 4 5 5 5 5 4 4 3 3 3 4 5 6 6 6 6 6 5 6 7 7 7 6 5 4 4 3 3 3 3 4 3 3 6 7 4 1 4 4 2 2 3 2 1 3 3 1 2 3 3 3 3 2 3 4 5 7 8 9
7 6 5 5 4 4 4 3 2 2 2 2 2 3 2 2 2 2 1 1 1 1 2 1 1 1 3 4 5 4 3 4 4 4 5 5 5 5 5 6 7 7 8 8 7 7 7 8 8 8 7 6 6 5 4 4 3 4 5 3 3 5 7 4 1 3 3 2 2 2 2 2 2 2 2 2 3 3 3 4 3 4 5 6 7 9 8
5 4 4 3 3 2 2 2 2 2 2 2 3 3 2 2 1 1 1 0 1 1 2 2 2 2 5 5 3 2 1 2 4 3 2 3 4 5 5 6 6 7 8 9 9 9 10 10 10 9 8 8 7 7 6 5 5 4 4 4 2 1 4 4 2 1 1 1 2 3 2 1 1 2 2 2 2 2 3 4 3 4 5 6 7 8 8
3 3 3 2 2 1 2 1 0 2 3 3 4 3 1 2 2 2 1 1 1 1 1 2 3 6 7 6 3 1 2 4 4 2 2 2 3 4 4 5 6 7 7 8 8 9 9 9 9 9 9 9 9 8 7 7 6 5 4 4 5 3 2 4 2 1 2 1 1 0 0 0 1 1 1 2 2 3 3 3 3 4 4 5 6 7 9
2 2 2 2 2 2 2 1 0 1 1 2 2 3 3 3 3 2 1 1 2 2 1 5 8 8 7 5 4 4 4 5 5 3 3 4 5 5 5 6 7 8 8 8 8 8 8 8 8 8 8 9 10 10 9 8 8 6 5 4 4 4 2 2 3 3 3 3 2 1 1 2 2 1 1 1 2 2 3 3 3 3 3 3 3 4 5
2 4 3 3 2 2 1 0 1 1 1 1 0 1 2 3 2 2 2 2 2 1 3 7 8 7 7 7 6 6 6 6 6 5 6 7 7 7 7 7 8 9 10 9 9 8 7 7 7 8 8 9 10 10 10 10 9 8 6 5 4 3 2 4 4 2 1 2 3 1 2 2 2 2 2 2 2 2 2 3 3 3 3 3 2 2 3
3 3 3 3 3 2 1 1 2 1 0 1 0 1 2 2 2 2 2 2 1 1 2 5 6 6 7 8 9 8 7 7 7 7 8 8 8 9 9 9 9 9 10 9 7 6 5 5 5 6 9 10 10 11 11 11 10 9 6 5 5 4 3 3 4 3 2 2 1 0 1 2 3 3 2 2 2 2 2 3 3 3 3 3 2 3 3
4 3 3 2 1 1 1 1 1 1 1 1 1 2 2 1 2 3 3 2 2 2 3 4 5 6 7 8 9 9 10 9 9 9 9 9 9 9 9 9 9 9 9 7 7 8 6 6 6 7 9 10 10 11 11 12 11 10 7 6 5 4 4 3 3 3 3 2 0 2 2 3 3 3 3 3 3 3 3 3 3 3 3 3 3 3 3
3 3 2 1 1 0 1 1 1 1 2 2 2 3 3 2 2 2 3 3 2 3 3 4 5 6 6 7 8 9 10 10 9 9 10 10 9 10 11 12 11 9 7 7 7 8 7 8 8 9 9 9 10 10 11 13 12 10 8 7 6 5 4 4 3 2 3 1 2 3 2 2 3 3 3 3 3 3 3 3 3 4 3 4 4 4 3
2 2 2 1 1 0 2 2 1 1 2 3 3 3 3 3 3 3 3 3 3 3 4 4 4 5 7 8 8 9 9 8 8 8 9 9 8 10 13 14 11 7 5 5 6 7 8 9 9 9 8 8 8 9 10 12 12 11 8 7 7 6 5 5 4 4 3 2 4 4 3 3 3 4 4 4 4 4 5 5 5 5 4 4 4 4 3
1 2 1 1 1 0 1 2 2 2 2 2 3 3 3 3 3 3 4 4 3 4 4 4 4 5 7 7 7 7 8 7 7 7 7 7 8 9 10 9 4 3 2 3 6 7 9 9 8 7 8 7 7 8 9 10 11 11 9 8 7 7 6 5 5 5 5 3 3 4 5 6 5 5 6 6 5 5 5 6 6 5 4 4 4 3 3
1 1 2 2 2 1 1 2 2 2 2 2 3 4 3 2 3 3 4 4 4 4 5 5 4 5 7 7 7 7 7 7 8 8 8 8 8 9 9 9 3 2 2 4 6 6 6 6 4 6 7 6 5 7 9 9 9 10 10 9 8 8 7 6 6 6 6 4 4 5 5 6 6 6 7 6 6 6 6 5 5 5 4 4 3 3 3
1 1 2 3 2 1 2 2 3 3 3 2 4 5 4 3 4 4 4 4 5 5 6 6 5 6 7 8 8 8 7 8 8 8 9 9 10 10 10 9 4 2 3 4 5 5 6 5 3 4 6 6 4 6 9 9 9 10 10 9 8 9 8 8 8 8 7 6 6 6 5 6 7 7 7 7 7 7 6 6 6 6 5 4 4 3 3
1 2 2 1 0 1 3 4 4 5 4 4 4 5 5 5 5 5 5 5 5 6 7 7 7 7 8 8 8 8 8 7 8 8 8 8 9 9 9 8 4 1 1 3 5 6 6 4 2 3 7 9 7 5 7 10 11 9 8 8 10 10 10 9 9 9 8 8 7 7 6 7 7 7 8 8 7 7 7 7 6 6 5 5 5 4 4
3 2 0 1 1 3 4 5 5 5 5 5 5 5 6 6 6 5 5 5 5 5 6 7 7 7 8 8 8 8 7 8 8 8 7 8 7 4 5 6 4 3 3 3 6 7 6 3 3 5 6 9 9 8 7 8 10 8 7 8 9 10 10 10 10 10 9 9 9 8 7 7 7 7 7 8 8 8 8 8 8 7 7 6 6 6 5
3 2 1 2 3 3 3 4 5 5 6 7 6 6 6 6 5 5 5 5 5 6 6 6 6 7 8 8 8 8 8 9 9 8 7 9 8 3 3 3 4 5 5 6 7 8 6 5 6 6 6 7 9 9 8 8 8 7 7 8 9 9 9 10 11 11 11 10 10 9 8 8 8 9 8 7 7 8 7 7 7 8 8 8 8 7 7
1 2 2 1 2 3 3 3 4 5 6 6 6 5 5 5 5 4 5 5 5 6 6 6 6 6 6 7 8 8 8 9 9 7 7 9 10 6 4 4 6 8 8 8 9 8 7 7 8 7 7 8 10 10 9 9 9 8 8 9 9 10 11 11 11 12 12 11 11 10 8 7 8 9 8 8 8 8 7 7 8 8 8 8 9 8 8
2 2 1 1 2 3 3 3 4 5 5 5 5 4 4 5 5 5 5 6 6 6 6 6 6 6 5 6 7 8 8 9 10 8 6 6 8 6 3 3 4 6 8 9 9 10 11 12 11 10 10 10 11 11 10 11 11 10 10 10 11 12 13 14 13 12 12 12 12 12 10 9 9 9 8 8 9 9 9 9 10 9 8 8 9 9 9
2 2 2 3 4 3 2 3 5 4 3 4 4 4 4 5 6 5 5 6 6 5 5 5 5 5 5 6 7 7 7 8 8 7 6 6 7 6 5 3 4 5 7 8 9 9 9 9 10 12 12 12 12 12 12 12 12 12 12 12 13 14 15 15 14 13 12 12 13 13 12 11 10 9 8 8 9 10 10 10 11 10 10 9 9 9 10
3 4 4 3 2 2 2 4 5 5 4 5 5 5 4 5 6 5 5 5 5 5 5 4 4 4 4 5 5 5 5 6 6 6 6 6 6 7 7 6 5 6 7 9 10 9 8 7 8 10 11 11 12 12 13 13 13 12 13 14 14 15 15 15 14 13 11 10 12 13 14 13 12 10 10 9 9 9 10 10 10 11 12 11 9 8 9
3 3 2 1 2 2 3 2 3 5 5 5 5 5 5 5 6 5 5 5 5 5 5 5 5 4 4 4 3 4 4 4 5 5 5 6 6 6 7 7 7 8 9 9 9 9 9 8 8 8 9 10 11 11 12 12 12 11 11 11 12 12 12 13 13 12 11 11 12 13 14 14 13 12 11 11 10 9 9 10 10 10 11 12 11 9 9
2 2 2 2 3 4 3 1 1 3 4 4 4 4 5 6 6 5 4 4 5 6 5 4 4 5 4 3 3 4 4 4 4 4 5 6 6 6 7 7 8 9 9 9 9 10 9 8 6 6 7 8 9 9 10 11 11 11 11 11 11 11 12 12 12 12 12 13 14 14 14 14 14 13 13 12 12 11 10 10 10 10 10 11 11 11 10
Wind_Direction
222 110 93 22 338 36 67 260 159 126 255 338 0 14 32 358 277 136 141 172 142 101 69 59 47 35 43 52 55 55 53 58 57 52 48 43 38 37 33 30 25 18 19 20 17 18 21 27 37 34 17 11 17 22 16 26 81 78 115 142 147 148 150 153 155 153 146 143 150 155 155 158 162 163 160 159 157 155 152 155 165 173 172 172 171 164 162
180 74 101 88 29 178 90 45 20 33 58 56 48 36 36 49 74 101 132 136 106 80 66 64 51 38 50 55 57 57 53 56 58 53 48 43 40 39 33 29 27 21 20 21 18 19 21 22 28 33 26 18 19 23 24 34 60 70 111 142 150 153 157 158 155 149 140 135 138 146 152 157 159 159 159 157 153 151 150 149 155 163 164 166 169 164 160
223 223 203 121 61 281 77 49 22 17 30 39 42 31 23 44 89 113 125 116 96 77 69 73 67 60 62 55 50 51 49 51 57 56 50 44 39 38 33 28 27 24 23 23 21 21 22 22 24 28 27 24 26 33 39 50 65 83 115 132 133 140 151 151 146 143 142 139 134 133 142 150 152 154 155 153 148 143 142 141 144 153 154 148 146 148 146
228 198 198 189 188 164 84 49 22 16 18 19 40 45 28 18 38 131 145 122 101 106 94 86 77 64 59 52 45 45 45 49 55 56 52 45 39 36 32 28 27 25 25 24 22 23 25 26 28 30 31 26 27 38 47 54 66 82 98 101 95 102 120 125 125 127 130 132 127 122 125 130 131 132 134 134 131 124 120 120 127 141 142 113 90 97 111
240 174 168 180 194 192 112 38 10 8 15 12 38 60 40 20 13 29 102 66 87 117 118 98 79 63 55 48 40 39 43 48 53 55 53 47 43 39 34 31 28 26 29 27 25 26 29 32 35 37 44 43 36 41 55 64 72 77 83 89 88 88 101 113 115 116 116 113 111 113 114 113 114 117 118 117 118 118 118 118 122 125 119 107 105 103 97
227 159 145 167 202 212 154 33 4 2 13 14 31 52 37 24 27 50 73 78 86 98 89 76 69 62 59 55 46 38 39 46 52 53 51 46 44 42 38 36 31 28 31 30 28 31 33 36 40 44 53 59 55 51 60 72 77 75 76 83 83 81 88 100 106 111 112 107 108 115 121 122 121 118 115 110 109 115 119 118 117 115 107 111 132 143 129
216 157 167 194 206 182 100 42 7 0 4 16 38 62 46 31 31 52 77 88 84 83 87 85 80 74 68 62 54 46 42 47 53 53 51 49 49 47 42 40 34 30 33 32 29 31 33 38 47 51 54 60 62 60 62 70 75 76 75 77 77 76 78 83 92 103 107 107 110 118 125 131 131 122 116 115 114 118 122 116 112 111 108 113 128 133 133
192 188 197 189 145 97 96 53 6 1 357 6 29 77 52 27 12 32 74 92 93 98 106 104 100 97 83 66 54 49 48 51 55 59 58 55 54 52 50 47 39 30 32 35 33 33 35 38 45 51 55 60 65 65 64 66 70 74 73 72 73 74 72 74 82 92 101 106 111 115 118 125 129 122 116 117 123 135 145 143 136 131 123 118 122 126 126
179 143 95 123 144 107 66 38 8 6 356 344 343 61 50 24 6 18 70 103 107 107 113 116 124 126 101 67 47 43 49 55 59 62 60 57 57 53 48 45 38 29 29 34 38 41 42 39 39 43 53 64 70 71 67 65 67 69 67 65 67 67 66 70 79 85 92 97 101 106 110 110 110 108 103 101 107 120 132 134 135 138 134 124 121 125 126
190 140 122 140 164 105 42 19 10 18 4 304 302 270 59 31 13 15 58 104 110 115 124 125 138 187 96 65 46 39 49 59 61 61 58 55 52 44 37 36 34 29 28 32 37 42 45 42 39 40 49 61 68 67 65 64 65 65 63 61 64 65 63 68 78 85 91 95 94 96 100 102 104 105 104 101 99 103 113 117 117 123 125 119 120 129 132
237 166 149 119 103 76 25 3 2 10 31 198 249 226 96 27 9 20 72 107 118 129 132 113 3 312 349 92 73 53 55 57 55 55 54 52 48 40 34 34 32 28 31 36 37 38 41 41 38 40 48 57 60 58 56 58 60 60 59 59 62 65 65 68 75 81 87 92 96 95 92 91 96 104 108 108 108 113 119 119 117 120 119 114 120 129 129
122 105 102 76 82 61 7 351 349 2 36 195 239 211 82 6 350 33 100 124 135 133 109 31 6 358 43 112 113 92 73 62 53 48 48 46 44 41 37 37 36 33 36 40 36 30 30 33 35 39 46 53 56 54 52 54 56 55 55 56 58 61 63 65 68 72 76 80 86 93 94 92 95 103 108 111 115 119 120 119 123 129 128 125 128 130 125
115 114 107 89 95 43 357 343 346 2 327 225 263 34 12 327 335 62 105 133 144 131 52 48 46 44 79 110 117 99 76 67 58 52 51 49 46 45 40 37 39 40 42 45 40 32 30 33 33 38 47 52 54 54 53 52 52 52 52 55 57 58 61 63 64 66 69 71 73 79 85 90 94 100 105 107 107 106 106 108 118 127 128 124 122 119 117
87 113 108 105 107 36 354 339 349 3 333 235 32 6 312 316 5 98 119 131 129 75 60 87 99 95 98 105 106 92 78 73 66 58 57 55 53 52 46 40 42 45 48 50 46 39 39 42 39 40 49 53 52 52 51 47 45 47 51 53 55 58 60 62 63 64 66 68 69 70 73 80 86 89 94 98 96 93 93 97 104 113 120 118 112 105 97
38 93 87 93 101 21 358 351 7 14 7 36 12 334 338 25 55 81 86 86 86 75 85 102 108 107 104 100 99 97 87 76 68 61 57 54 52 53 51 48 47 48 50 50 46 38 41 48 50 47 48 50 50 51 50 42 38 45 50 51 55 59 61 63 64 65 65 66 67 67 68 73 79 82 86 91 91 93 102 111 119 125 133 139 137 134 138
12 66 65 56 41 9 7 18 43 32 24 34 6 355 32 47 56 70 68 67 80 90 100 105 103 103 102 96 96 95 86 78 72 63 57 56 54 53 53 53 53 53 54 54 49 42 39 45 50 50 47 46 46 47 45 38 36 42 47 50 53 56 59 63 64 65 65 65 64 65 66 68 73 75 78 83 88 91 98 113 126 130 132 144 154 149 144
59 73 86 84 57 35 35 42 50 52 51 53 54 56 54 46 51 69 76 77 85 93 100 100 97 96 95 94 93 88 81 79 76 69 63 60 60 61 59 56 57 61 65 64 59 53 45 43 49 50 47 46 47 46 42 37 37 41 44 47 50 50 53 56 59 62 66 65 63 63 64 65 66 66 65 68 72 74 74 74 77 86 90 98 109 109 105
88 79 81 86 74 65 64 58 53 54 56 60 66 67 62 55 57 67 73 73 79 87 95 98 96 96 96 93 90 87 86 80 73 72 70 65 65 67 63 59 61 67 71 71 67 61 54 50 53 53 49 48 49 47 45 42 41 42 44 46 48 50 52 53 54 56 60 62 62 61 61 63 64 60 58 58 55 52 55 59 60 60 62 60 63 72 65
99 81 79 81 74 72 75 72 67 63 62 66 71 72 74 75 75 80 84 84 86 91 96 99 103 108 111 109 103 96 93 89 82 76 71 65 66 66 61 58 62 66 68 69 70 67 59 52 52 54 54 54 54 53 50 47 45 46 49 50 50 52 54 56 58 58 58 61 64 60 57 57 57 55 53 53 53 48 39 34 37 44 47 45 45 48 49
92 98 98 89 78 72 69 68 69 68 69 74 81 87 91 89 87 85 85 86 89 91 96 107 115 117 118 124 128 123 111 99 93 87 83 77 67 60 59 59 61 63 61 59 61 64 63 59 57 57 56 56 59 60 55 50 49 48 48 49 50 52 54 55 59 61 60 63 67 67 63 59 55 51 48 48 52 49 38 31 32 33 34 41 40 30 25
101 109 112 107 93 80 70 69 75 77 79 84 89 95 99 100 99 93 84 80 76 67 66 83 95 88 64 55 89 125 129 120 111 104 100 99 87 72 64 58 61 64 65 63 60 55 53 54 57 60 59 56 55 57 55 51 49 47 48 52 51 48 48 50 53 56 57 58 63 69 71 67 61 55 51 50 54 52 45 48 54 48 39 40 37 25 21
99 108 119 117 98 85 77 78 82 85 89 93 93 95 97 98 102 102 97 92 82 65 54 54 57 56 42 27 29 49 83 103 116 123 120 112 109 108 103 88 79 81 80 81 80 71 62 56 50 50 52 51 49 49 47 44 42 39 42 54 54 49 46 44 44 49 55 57 58 63 71 77 75 67 58 53 54 55 55 58 63 64 61 55 49 44 38
89 99 106 100 93 92 91 90 87 87 91 91 89 91 93 95 102 105 104 103 97 82 70 63 58 59 53 38 34 31 22 28 65 102 114 110 106 112 117 111 97 88 76 71 74 78 80 79 69 60 55 49 45 44 41 40 40 34 32 41 50 53 50 39 29 37 53 55 52 58 64 69 87 100 87 69 57 51 52 56 59 60 61 61 59 57 55
98 94 93 96 100 100 99 97 93 90 90 89 88 91 94 97 102 104 104 106 106 101 95 88 83 80 70 56 53 42 17 8 6 357 4 76 99 103 115 116 119 127 120 94 71 64 64 66 69 70 66 56 47 41 36 36 38 35 33 33 33 42 55 50 36 38 51 52 48 53 59 58 62 101 130 117 93 68 52 49 54 57 55 51 50 49 50
103 99 98 102 104 103 102 97 90 88 91 93 96 100 97 96 100 105 108 111 111 112 113 112 111 110 99 85 76 54 25 13 355 341 338 358 37 28 77 99 113 132 138 130 107 77 61 55 52 53 52 49 44 38 33 32 32 35 39 36 26 22 28 34 38 50 53 46 45 50 50 50 51 46 61 111 119 114 97 72 63 66 62 52 42 35 34
107 112 112 109 106 107 108 101 96 96 95 93 96 100 103 109 116 113 109 112 116 118 121 121 122 123 114 105 100 80 39 19 355 330 322 326 319 298 312 32 35 35 43 46 42 44 52 68 68 60 56 50 39 32 33 32 26 28 41 50 45 34 15 357 5 45 52 40 41 52 51 51 53 47 38 35 53 122 132 127 116 101 84 65 46 29 20
106 109 111 111 110 108 103 97 98 101 98 97 100 101 107 125 133 121 113 116 120 120 116 113 113 113 106 107 118 115 104 70 320 285 287 291 281 276 290 328 354 7 5 351 6 25 16 275 281 42 64 54 30 18 32 36 28 24 33 66 96 96 66 27 22 43 52 43 39 40 54 70 73 61 60 58 42 64 113 151 167 157 137 104 66 38 23
97 97 100 104 105 106 106 106 106 104 100 101 104 103 104 112 115 110 111 117 121 124 123 119 115 102 90 98 114 108 96 54 30 358 292 286 285 284 293 295 280 299 318 318 329 337 302 282 298 318 350 17 7 9 25 27 21 19 18 30 91 108 82 47 36 32 35 42 39 21 5 37 72 67 53 44 42 62 62 47 45 87 125 116 84 55 39
97 103 102 97 101 110 117 118 114 109 101 94 95 100 105 106 104 107 114 116 118 124 124 115 95 48 40 29 13 31 44 36 34 35 19 347 324 304 289 276 270 275 285 291 298 305 299 295 294 289 293 317 332 352 12 7 2 14 12 9 22 23 13 15 22 20 29 52 48 30 333 297 301 57 67 35 11 38 50 36 19 27 60 86 79 62 51
89 97 100 102 108 117 124 128 126 122 117 108 101 106 113 111 102 100 104 111 120 132 129 108 87 38 18 15 18 25 24 23 28 27 17 15 9 324 297 287 274 265 268 280 291 297 295 290 286 284 283 289 299 314 340 344 350 1 356 355 31 24 10 0 347 344 355 36 26 357 311 296 345 45 61 43 45 58 65 66 33 22 54 66 53 39 32
93 94 101 111 118 120 127 141 145 130 123 125 131 130 122 108 99 99 98 102 116 144 198 131 98 50 5 20 42 44 28 19 17 359 335 343 20 17 346 321 304 290 287 294 299 296 284 278 278 279 276 279 284 285 300 318 323 330 339 4 87 64 41 37 315 326 354 17 356 337 326 15 63 75 72 52 67 71 69 75 67 42 50 57 43 33 27
105 105 110 119 127 132 139 154 167 156 142 152 178 177 149 112 95 103 98 74 109 160 185 220 256 45 55 54 60 63 44 12 355 340 336 348 358 345 321 309 303 296 291 287 285 282 277 272 270 269 265 268 271 267 276 295 299 305 327 350 109 92 63 58 334 312 347 351 324 341 19 47 67 93 94 70 75 79 69 68 68 57 52 52 42 34 33
115 118 117 113 120 136 138 141 169 199 188 200 234 230 168 134 150 174 155 224 263 168 180 227 264 74 91 95 92 76 23 289 275 274 301 326 328 318 307 299 291 286 285 284 282 281 278 274 273 270 267 264 263 256 254 264 275 286 308 320 320 101 104 107 117 277 276 302 338 353 12 32 62 92 97 82 72 75 77 79 79 73 68 65 56 45 41
54 62 63 68 74 45 39 66 170 226 208 213 245 267 251 199 215 216 205 237 294 283 220 182 123 106 117 136 161 208 264 278 284 268 231 270 303 310 303 297 293 289 287 285 282 277 274 270 270 270 267 260 254 250 245 247 259 272 285 303 317 319 160 153 151 304 307 317 343 351 15 74 112 132 114 96 70 60 71 82 84 81 81 83 79 65 51
71 83 78 83 92 67 47 59 64 288 250 225 239 267 266 250 221 173 162 249 282 279 156 124 117 121 141 169 201 230 250 279 307 313 270 272 290 296 292 294 299 300 297 292 286 279 275 270 264 261 264 262 255 249 243 239 245 257 265 278 303 317 314 297 303 317 332 332 306 222 73 66 97 160 151 108 99 87 86 86 84 83 81 79 82 74 56
130 129 123 114 99 82 55 57 79 38 329 307 307 259 258 260 234 170 176 219 249 239 129 132 139 155 177 198 220 239 250 266 282 284 276 276 279 280 283 290 298 305 307 302 294 287 280 271 256 250 261 270 264 252 243 236 236 244 252 263 280 290 294 297 295 291 322 331 315 321 38 64 127 176 189 159 131 116 112 109 103 105 104 90 82 77 55
87 98 103 96 87 74 32 18 40 47 81 90 24 285 259 246 239 232 219 212 227 225 170 167 176 187 198 212 230 246 256 261 263 263 267 271 271 271 273 275 281 288 290 291 297 303 295 275 260 255 259 263 259 250 241 232 232 238 241 249 266 273 272 287 301 306 321 338 345 106 143 170 187 194 189 172 151 130 133 135 125 123 128 120 101 84 72
92 90 86 80 83 81 49 45 39 338 288 281 304 293 281 256 243 246 242 227 218 216 212 210 212 215 213 215 226 240 251 258 261 262 263 265 264 262 261 262 268 276 279 288 312 324 313 292 286 278 263 254 250 244 234 227 230 237 241 241 248 261 269 271 278 292 305 324 57 156 178 190 198 201 187 169 163 152 143 144 144 138 135 130 118 103 89
119 118 121 151 180 213 275 235 200 263 281 284 286 282 273 261 253 254 253 243 222 220 235 236 231 238 242 235 232 240 247 247 250 258 264 265 259 256 260 263 263 267 279 298 312 311 299 292 289 279 262 253 247 235 222 221 227 233 238 243 243 250 259 258 252 270 293 326 109 145 192 211 206 202 190 173 169 162 145 143 154 154 147 141 129 112 96
120 116 126 170 180 258 281 280 285 298 293 293 296 288 270 255 244 245 252 242 206 204 239 253 247 253 258 252 248 256 255 241 234 246 256 255 248 253 267 272 263 244 248 287 304 299 293 293 288 274 259 253 245 226 212 215 224 229 234 240 239 239 247 248 237 235 237 159 113 130 183 202 200 202 201 192 182 167 155 156 162 160 153 145 134 122 113
148 136 165 203 197 206 299 311 321 309 298 309 321 312 290 274 261 256 261 257 226 210 236 257 262 269 275 271 263 262 260 251 245 244 243 241 240 251 273 288 283 167 180 294 307 302 297 292 280 263 258 255 240 217 204 207 217 225 231 235 234 235 242 246 242 240 237 211 163 176 187 184 186 196 198 194 186 174 167 166 164 159 155 149 142 136 133
156 161 220 230 215 214 251 279 290 287 297 314 309 298 290 285 271 256 255 260 253 244 250 255 254 267 282 286 279 266 259 260 261 255 251 255 258 264 282 298 316 99 67 327 310 293 288 288 267 250 258 267 244 211 202 203 212 223 229 232 232 233 237 237 236 240 243 238 229 215 194 181 187 194 193 192 190 181 175 173 167 161 162 163 161 160 154
126 194 230 230 222 242 263 267 271 276 281 290 289 286 283 281 272 263 261 263 263 264 268 266 257 255 263 268 270 268 265 261 259 256 255 255 254 255 267 282 292 73 51 341 309 286 285 298 285 238 240 253 247 207 203 212 222 227 228 231 232 233 235 235 232 232 233 231 233 231 217 204 200 194 190 195 196 187 183 188 183 173 172 178 180 181 176
159 213 232 243 321 287 270 263 267 277 287 291 287 279 273 269 265 265 270 272 272 275 279 278 271 266 263 259 259 264 265 262 261 260 257 255 253 246 241 244 255 329 9 315 303 297 294 303 322 267 249 248 242 217 209 221 230 232 234 237 235 233 233 234 233 233 231 228 229 231 227 225 222 209 197 198 199 193 191 197 195 185 186 193 196 196 197
164 163 117 332 288 269 272 280 288 296 297 291 281 270 266 267 267 266 269 274 276 277 278 277 274 270 264 257 257 262 268 274 278 277 270 273 278 258 193 192 225 266 264 266 289 299 294 281 294 299 273 246 231 222 220 226 231 237 252 258 253 247 242 236 233 234 234 230 229 230 226 226 232 229 214 205 204 200 198 201 201 195 194 198 201 201 206
162 147 161 246 265 278 297 305 305 302 294 286 281 274 267 264 262 261 266 271 273 271 271 273 275 273 267 263 262 262 262 268 277 282 286 290 295 296 142 179 265 273 256 254 275 293 299 290 281 280 262 229 217 217 221 226 230 238 251 260 263 266 262 249 238 235 235 232 231 231 226 222 226 229 225 217 213 210 207 205 204 200 200 203 204 205 208
193 216 218 246 299 313 316 308 299 291 282 281 285 286 276 265 259 260 266 270 272 274 276 277 276 270 263 261 263 265 268 276 289 307 319 307 294 272 227 237 268 272 264 259 261 266 273 274 272 265 249 230 221 218 220 225 230 232 235 238 243 254 263 265 256 243 236 233 232 229 226 224 228 228 222 212 209 212 213 210 207 208 207 203 198 200 206
213 253 294 0 305 297 298 293 284 279 279 286 294 296 283 269 266 269 273 272 269 267 271 274 274 271 265 258 261 267 275 286 297 313 322 303 286 276 249 230 255 271 274 268 258 253 256 261 264 261 251 239 231 227 227 229 229 225 224 230 235 238 247 261 266 254 239 233 232 229 225 226 230 230 222 212 209 211 211 209 211 216 216 202 194 199 206
208 258 251 225 233 257 294 291 279 278 291 303 302 297 284 274 271 273 276 275 271 266 265 263 261 262 261 256 257 264 274 284 294 305 310 297 290 297 306 290 270 276 282 275 264 258 257 260 263 261 253 243 237 236 236 237 234 227 224 231 237 234 232 241 253 256 247 238 233 230 228 228 229 228 223 217 215 214 210 207 211 217 216 205 199 204 207
202 228 231 227 244 317 330 312 306 315 327 319 308 304 295 283 281 287 291 288 283 281 280 278 272 265 262 258 256 262 273 282 287 294 301 298 293 293 297 297 293 292 287 279 271 265 260 258 264 266 257 245 240 241 242 243 243 236 226 227 234 235 231 232 240 247 249 243 234 229 229 230 232 231 228 224 222 216 209 207 212 218 215 209 207 208 208
234 245 265 13 0 313 299 310 324 324 318 311 308 308 298 286 286 297 306 303 295 290 291 300 305 301 293 288 283 279 284 291 292 292 297 300 298 293 291 292 292 288 282 277 274 268 256 246 250 261 258 245 239 240 243 245 247 245 238 234 236 240 241 240 240 241 242 241 235 230 229 230 232 233 233 231 228 222 214 210 213 217 215 212 213 215 212
263 314 334 295 244 242 249 241 263 293 299 305 317 323 317 308 304 303 297 289 292 296 299 302 300 294 295 311 325 321 309 301 297 295 296 297 298 296 292 287 283 281 277 275 275 273 261 242 234 254 263 252 240 238 242 243 244 247 247 245 243 243 244 244 242 239 237 234 231 229 231 232 233 234 235 233 228 222 217 215 215 216 215 213 215 216 214